Weather History for Wrangell, AK

Change the Weather History Date:

Wednesday, October 24, 2012

  Actual Average Record
Temperature  
Mean Temperature 37 °F -  
Max Temperature 42 °F 48 °F 63 °F (1980)
Min Temperature 32 °F 38 °F 24 °F (1966)
Degree Days  
Heating Degree Days 28    
Moisture  
Dew Point 17 °F    
Average Humidity 44    
Maximum Humidity 60    
Minimum Humidity 34    
Precipitation  
Precipitation 0.00 in - - ()
Sea Level Pressure  
Sea Level Pressure 30.18 in    
Wind  
Wind Speed 8 mph (ESE)    
Max Wind Speed 13 mph    
Max Gust Speed 20 mph    
Visibility 10 miles    
Events      
Averages and records for this station are not official NWS values.
T = Trace of Precipitation, MM = Missing Value Source: NWS Daily Summary

Daily Weather History Graph

Daily Weather History Graph

Search for Another Location

Airport:

Trip Planner

Search our weather history database for the weather conditions in past years. The results will help you decide how hot, cold, wet, or windy it might be!

Date:

Astronomy

Oct. 24, 2012 Rise Set
Actual Time 7:42 AM AKDT 5:23 PM AKDT
Civil Twilight 7:03 AM AKDT 6:03 PM AKDT
Nautical Twilight 6:19 AM AKDT 6:46 PM AKDT
Astronomical Twilight 5:35 AM AKDT 7:30 PM AKDT
Moon 3:27 PM AKDT (10/24) 1:53 AM AKDT (10/24)
Length of Visible Light 11h 00m
Length of Day
9h 41m
Waxing Gibbous, 77% of the Moon is Illuminated
Oct 24
Waxing Gibbous
Oct 29
Full
Nov 6
Last Quarter
Nov 13
New
Nov 20
First Quarter

Hourly Weather History & Observations

Time (AKDT) Temp. Windchill Dew Point Humidity Pressure Visibility Wind Dir Wind Speed Gust Speed Precip Events Conditions
12:16 AM 35.6 °F 29.9 °F 17.6 °F 48% 30.09 in 10.0 mi ESE 6.9 mph - N/A   Clear
12:36 AM 37.4 °F 32.1 °F 17.6 °F 45% 30.10 in 10.0 mi ESE 6.9 mph - N/A   Clear
12:56 AM 37.4 °F 30.8 °F 17.6 °F 45% 30.09 in 10.0 mi ESE 9.2 mph - N/A   Clear
1:16 AM 39.2 °F 34.2 °F 15.8 °F 39% 30.09 in 10.0 mi ESE 6.9 mph - N/A   Clear
1:36 AM 39.2 °F 33.6 °F 15.8 °F 39% 30.09 in 10.0 mi ESE 8.1 mph - N/A   Clear
1:56 AM 37.4 °F 32.1 °F 15.8 °F 41% 30.09 in 10.0 mi ESE 6.9 mph - N/A   Clear
2:16 AM 37.4 °F 32.8 °F 15.8 °F 41% 30.10 in 10.0 mi SE 5.8 mph - N/A   Clear
2:36 AM 37.4 °F 32.8 °F 15.8 °F 41% 30.10 in 10.0 mi SE 5.8 mph - N/A   Clear
2:56 AM 35.6 °F 30.7 °F 17.6 °F 48% 30.11 in 10.0 mi SE 5.8 mph - N/A   Clear
3:16 AM 35.6 °F 29.9 °F 17.6 °F 48% 30.11 in 10.0 mi ESE 6.9 mph - N/A   Clear
3:36 AM 35.6 °F 30.7 °F 17.6 °F 48% 30.11 in 10.0 mi SSE 5.8 mph - N/A   Clear
3:56 AM 33.8 °F 29.6 °F 19.4 °F 56% 30.11 in 10.0 mi SE 4.6 mph - N/A   Clear
4:16 AM 33.8 °F 28.6 °F 17.6 °F 52% 30.11 in 10.0 mi SE 5.8 mph - N/A   Clear
4:36 AM 33.8 °F 29.6 °F 15.8 °F 48% 30.11 in 10.0 mi SE 4.6 mph - N/A   Clear
4:56 AM 33.8 °F 28.6 °F 19.4 °F 56% 30.11 in 10.0 mi SSE 5.8 mph - N/A   Clear
5:16 AM 33.8 °F 27.7 °F 17.6 °F 52% 30.12 in 10.0 mi ESE 6.9 mph - N/A   Clear
5:36 AM 33.8 °F 27.7 °F 19.4 °F 56% 30.12 in 10.0 mi SE 6.9 mph - N/A   Clear
5:56 AM 33.8 °F 28.6 °F 19.4 °F 56% 30.12 in 10.0 mi SE 5.8 mph - N/A   Clear
6:16 AM 33.8 °F 28.6 °F 21.2 °F 60% 30.13 in 10.0 mi SE 5.8 mph - N/A   Clear
6:36 AM 32.0 °F 26.4 °F 19.4 °F 60% 30.14 in 10.0 mi SE 5.8 mph - N/A   Clear
6:56 AM 33.8 °F 27.7 °F 17.6 °F 52% 30.14 in 10.0 mi ESE 6.9 mph - N/A   Partly Cloudy
7:16 AM 33.8 °F 28.6 °F 19.4 °F 56% 30.14 in 10.0 mi ESE 5.8 mph - N/A   Partly Cloudy
7:36 AM 33.8 °F 27.0 °F 19.4 °F 56% 30.15 in 10.0 mi ESE 8.1 mph - N/A   Partly Cloudy
7:56 AM 35.6 °F 30.7 °F 19.4 °F 52% 30.15 in 10.0 mi ESE 5.8 mph - N/A   Partly Cloudy
8:16 AM 35.6 °F 29.2 °F 19.4 °F 52% 30.15 in 10.0 mi ESE 8.1 mph - N/A   Partly Cloudy
8:36 AM 35.6 °F 29.9 °F 19.4 °F 52% 30.16 in 10.0 mi ESE 6.9 mph - N/A   Partly Cloudy
8:56 AM 37.4 °F 31.4 °F 19.4 °F 48% 30.16 in 10.0 mi ESE 8.1 mph - N/A   Partly Cloudy
9:16 AM 37.4 °F 30.8 °F 21.2 °F 52% 30.16 in 10.0 mi ESE 9.2 mph - N/A   Partly Cloudy
9:36 AM 39.2 °F 32.0 °F 19.4 °F 45% 30.16 in 10.0 mi East 11.5 mph - N/A   Partly Cloudy
9:56 AM 39.2 °F 32.5 °F 17.6 °F 42% 30.16 in 10.0 mi East 10.4 mph - N/A   Partly Cloudy
10:16 AM 39.2 °F 32.5 °F 15.8 °F 39% 30.17 in 10.0 mi East 10.4 mph - N/A   Partly Cloudy
10:36 AM 39.2 °F 31.6 °F 17.6 °F 42% 30.17 in 10.0 mi East 12.7 mph - N/A   Partly Cloudy
10:56 AM 39.2 °F 31.6 °F 17.6 °F 42% 30.17 in 10.0 mi East 12.7 mph 19.6 mph N/A   Partly Cloudy
11:16 AM 41.0 °F 35.2 °F 17.6 °F 39% 30.18 in 10.0 mi East 9.2 mph - N/A   Partly Cloudy
11:36 AM 41.0 °F 34.7 °F 17.6 °F 39% 30.18 in 10.0 mi East 10.4 mph 17.3 mph N/A   Partly Cloudy
11:56 AM 41.0 °F 34.3 °F 17.6 °F 39% 30.18 in 10.0 mi East 11.5 mph - N/A   Partly Cloudy
12:16 PM 41.0 °F 34.3 °F 17.6 °F 39% 30.18 in 10.0 mi East 11.5 mph 18.4 mph N/A   Partly Cloudy
12:36 PM 41.0 °F 34.3 °F 17.6 °F 39% 30.19 in 10.0 mi East 11.5 mph - N/A   Partly Cloudy
12:56 PM 42.8 °F 36.6 °F 15.8 °F 34% 30.19 in 10.0 mi East 11.5 mph - N/A   Partly Cloudy
1:16 PM 42.8 °F 37.0 °F 17.6 °F 36% 30.19 in 10.0 mi East 10.4 mph 17.3 mph N/A   Partly Cloudy
1:36 PM 42.8 °F 37.0 °F 17.6 °F 36% 30.20 in 10.0 mi East 10.4 mph - N/A   Partly Cloudy
1:56 PM 42.8 °F 37.0 °F 17.6 °F 36% 30.20 in 10.0 mi ENE 10.4 mph - N/A   Partly Cloudy
2:16 PM 42.8 °F 37.5 °F 15.8 °F 34% 30.20 in 10.0 mi East 9.2 mph 16.1 mph N/A   Partly Cloudy
2:36 PM 42.8 °F 37.0 °F 17.6 °F 36% 30.21 in 10.0 mi ENE 10.4 mph - N/A   Partly Cloudy
2:56 PM 42.8 °F 37.5 °F 15.8 °F 34% 30.21 in 10.0 mi ENE 9.2 mph - N/A   Partly Cloudy
3:16 PM 42.8 °F 36.2 °F 17.6 °F 36% 30.21 in 10.0 mi ENE 12.7 mph - N/A   Partly Cloudy
3:36 PM 42.8 °F 38.0 °F 15.8 °F 34% 30.22 in 10.0 mi East 8.1 mph - N/A   Partly Cloudy
3:56 PM 42.8 °F 38.0 °F 15.8 °F 34% 30.23 in 10.0 mi East 8.1 mph - N/A   Partly Cloudy
4:16 PM 41.0 °F 35.8 °F 15.8 °F 36% 30.23 in 10.0 mi East 8.1 mph - N/A   Partly Cloudy
4:36 PM 41.0 °F 35.2 °F 17.6 °F 39% 30.24 in 10.0 mi East 9.2 mph - N/A   Partly Cloudy
4:56 PM 39.2 °F 33.0 °F 15.8 °F 39% 30.24 in 10.0 mi East 9.2 mph - N/A   Partly Cloudy
5:16 PM 39.2 °F 33.0 °F 15.8 °F 39% 30.24 in 10.0 mi East 9.2 mph 17.3 mph N/A   Partly Cloudy
5:36 PM 39.2 °F 32.5 °F 15.8 °F 39% 30.25 in 10.0 mi East 10.4 mph - N/A   Partly Cloudy
5:56 PM 39.2 °F 32.5 °F 15.8 °F 39% 30.26 in 10.0 mi East 10.4 mph - N/A   Partly Cloudy
6:16 PM 39.2 °F 33.0 °F 15.8 °F 39% 30.26 in 10.0 mi ESE 9.2 mph - N/A   Partly Cloudy
6:36 PM 39.2 °F 33.0 °F 14.0 °F 36% 30.27 in 10.0 mi East 9.2 mph - N/A   Partly Cloudy
6:56 PM 39.2 °F 32.0 °F 14.0 °F 36% 30.27 in 10.0 mi East 11.5 mph 18.4 mph N/A   Partly Cloudy
7:16 PM 39.2 °F 33.0 °F 15.8 °F 39% 30.27 in 10.0 mi ESE 9.2 mph - N/A   Overcast
7:36 PM 39.2 °F 32.0 °F 15.8 °F 39% 30.28 in 10.0 mi East 11.5 mph - N/A   Overcast
7:56 PM 39.2 °F 31.6 °F 15.8 °F 39% 30.28 in 10.0 mi East 12.7 mph - N/A   Overcast
8:47 PM 39.2 °F 33.6 °F 15.8 °F 39% 30.30 in 10.0 mi ENE 8.1 mph - N/A   Mostly Cloudy
11:16 PM 35.6 °F 30.7 °F 19.4 °F 52% 30.33 in 10.0 mi SE 5.8 mph - N/A   Partly Cloudy
11:36 PM 35.6 °F 30.7 °F 17.6 °F 48% 30.33 in 10.0 mi SE 5.8 mph - N/A   Mostly Cloudy
11:56 PM 35.6 °F 30.7 °F 17.6 °F 48% 30.34 in 10.0 mi SSE 5.8 mph - N/A   Overcast